BM1CKC-10 Weather Reports


time (UTC)temp
C
wind
direction
speed
KPH
gust
KPH
rain 1hr
cm
rain 24hr
cm
rain mn
cm
humidity
%
barometer
mb
20260509074959 27 0.0 0.0 0.00 0.00 0.00 59 1010.0
20260509072959 27 0.0 0.0 0.00 0.00 0.00 60 1010.0
20260509070959 28 0.0 0.0 0.00 0.00 0.00 59 1010.1
20260509064959 27 0.0 0.0 0.00 0.00 0.00 60 1009.9
20260509063011 27 0.0 0.0 0.00 0.00 0.00 61 1009.9
20260509060958 26 0.0 0.0 0.00 0.00 0.00 62 1010.5
20260509054958 26 0.0 0.0 0.00 0.00 0.00 62 1010.7
20260509052959 26 0.0 0.0 0.00 0.00 0.00 62 1010.8
20260509050959 27 0.0 0.0 0.00 0.00 0.00 62 1011.2
20260509044959 26 0.0 0.0 0.00 0.00 0.00 62 1011.4
20260509042959 27 0.0 0.0 0.00 0.00 0.00 61 1011.5
20260509040959 27 0.0 0.0 0.00 0.00 0.00 60 1011.5
20260509034958 27 0.0 0.0 0.00 0.00 0.00 60 1012.1
20260509032958 27 0.0 0.0 0.00 0.00 0.00 59 1012.1
20260509030958 27 0.0 0.0 0.00 0.00 0.00 61 1012.3
20260509024958 27 0.0 0.0 0.00 0.00 0.00 60 1012.4
20260509022958 27 0.0 0.0 0.00 0.00 0.00 60 1012.4
20260509020958 27 0.0 0.0 0.00 0.00 0.00 59 1012.5
20260509014958 27 0.0 0.0 0.00 0.00 0.00 58 1012.6
20260509012958 27 0.0 0.0 0.00 0.00 0.00 59 1012.6
20260509010958 26 0.0 0.0 0.00 0.00 0.00 62 1012.6
20260509004958 26 0.0 0.0 0.00 0.00 0.00 62 1012.3
20260509002958 26 0.0 0.0 0.00 0.00 0.00 62 1012.0
20260509000958 26 0.0 0.0 0.00 0.00 0.00 62 1011.8
20260508234959 26 0.0 0.0 0.00 0.00 0.00 62 1011.5
20260508232959 26 0.0 0.0 0.00 0.00 0.00 62 1011.5
20260508230959 26 0.0 0.0 0.00 0.00 0.00 63 1011.5
20260508224959 25 0.0 0.0 0.00 0.00 0.00 64 1011.2
20260508222958 25 0.0 0.0 0.00 0.00 0.00 65 1011.2
20260508220959 25 0.0 0.0 0.00 0.00 0.00 66 1010.8
20260508214959 25 0.0 0.0 0.00 0.00 0.00 65 1011.0
20260508212958 24 0.0 0.0 0.00 0.00 0.00 66 1010.6
20260508210959 24 0.0 0.0 0.00 0.00 0.00 68 1010.4
20260508204958 24 0.0 0.0 0.00 0.00 0.00 67 1010.0
20260508202959 24 0.0 0.0 0.00 0.00 0.00 65 1009.9
20260508200958 25 0.0 0.0 0.00 0.00 0.00 64 1009.9
20260508195008 24 0.0 0.0 0.00 0.00 0.00 66 1009.4
20260508192958 24 0.0 0.0 0.00 0.00 0.00 66 1009.5
20260508190959 24 0.0 0.0 0.00 0.00 0.00 65 1009.6
20260508184959 25 0.0 0.0 0.00 0.00 0.00 65 1009.4
20260508182959 24 0.0 0.0 0.00 0.00 0.00 66 1009.6
20260508180959 24 0.0 0.0 0.00 0.00 0.00 64 1009.7
20260508174959 25 0.0 0.0 0.00 0.00 0.00 65 1009.9
20260508172958 25 0.0 0.0 0.00 0.00 0.00 62 1009.9
20260508170959 25 0.0 0.0 0.00 0.00 0.00 64 1010.3
20260508164959 25 0.0 0.0 0.00 0.00 0.00 61 1010.5
20260508162959 25 0.0 0.0 0.00 0.00 0.00 61 1010.7
20260508160958 25 0.0 0.0 0.00 0.00 0.00 60 1010.8
20260508154958 25 0.0 0.0 0.00 0.00 0.00 59 1010.7
20260508152959 25 0.0 0.0 0.00 0.00 0.00 59 1011.2
20260508150959 25 0.0 0.0 0.00 0.00 0.00 59 1011.3
20260508144959 25 0.0 0.0 0.00 0.00 0.00 56 1011.3
20260508143006 27 0.0 0.0 0.00 0.00 0.00 56 1011.3
20260508140958 27 0.0 0.0 0.00 0.00 0.00 59 1011.5
20260508134958 27 0.0 0.0 0.00 0.00 0.00 60 1011.5
20260508132958 27 0.0 0.0 0.00 0.00 0.00 59 1011.6
20260508130958 27 0.0 0.0 0.00 0.00 0.00 59 1011.4
20260508124958 27 0.0 0.0 0.00 0.00 0.00 60 1011.3
20260508122958 27 0.0 0.0 0.00 0.00 0.00 59 1011.1
20260508120958 28 0.0 0.0 0.00 0.00 0.00 59 1010.8
20260508114959 28 0.0 0.0 0.00 0.00 0.00 59 1010.5
20260508112958 28 0.0 0.0 0.00 0.00 0.00 60 1010.5
20260508110958 27 0.0 0.0 0.00 0.00 0.00 60 1010.3
20260508104958 27 0.0 0.0 0.00 0.00 0.00 60 1010.1
20260508102959 27 0.0 0.0 0.00 0.00 0.00 61 1009.9
20260508100959 27 0.0 0.0 0.00 0.00 0.00 61 1009.6
20260508094958 27 0.0 0.0 0.00 0.00 0.00 61 1009.4
20260508092958 27 0.0 0.0 0.00 0.00 0.00 62 1009.3
20260508090958 27 0.0 0.0 0.00 0.00 0.00 62 1009.1
20260508084958 27 0.0 0.0 0.00 0.00 0.00 61 1008.9
20260508082958 27 0.0 0.0 0.00 0.00 0.00 61 1008.7
20260508080958 28 0.0 0.0 0.00 0.00 0.00 59 1008.3